sat.trackr.live / text

‹ back to catalog

ICEYE-X72

NORAD 68504 · 2026-067CS

PAYLOAD ACTIVE UNKNOWN

§ Identity

Operator
Country
FIN
Launch date
2026-03-30
Launch site
AFWTR
Launch vehicle
Mass (kg)
RCS (m²)

External: N2YO · Heavens-Above · Gunter

§ Orbital elements

Epoch: 2026-05-24T20:04:54.881184Z

Period
96.52 min
Inclination
97.7614°
Eccentricity
0.0003493
Mean motion
14.91958515 rev/d
Perigee alt
589.4 km
Apogee alt
594.3 km
Semi-major
6,970.0 km
B*
2.2209e-4
RAAN
103.4776°
Arg perigee
68.1411°
Mean anomaly
292.0179°
Rev number
824

§ Raw data

ICEYE-X721 68504U 26067CS  26144.83674631  .00002193  00000+0  22209-3 0  99912 68504  97.7614 103.4776 0003493  68.1411 292.0179 14.91958515  8249

JSON: /api/v1/satellites/68504 · /tle

For live sub-satellite position, see the globe view (requires WebGL).

§ Visibility from observer

Set your observer location to see the next 7 days of passes ≥ 10°. The values pass through the URL so the page stays shareable.

No JS? Fill the form by hand. The geolocation button needs JavaScript.